FW5156 Weather Reports


Display with metric or nautical units.
time (UTC)temp
F
wind
direction
speed
MPH
gust
MPH
rain 1hr
in
rain 24hr
in
rain mn
in
humidity
%
barometer
mb
20260902125537 77 0.0 1.0 0.00 0.00 0.00 87 1018.9
20260902124517 76 0.0 2.0 0.00 0.00 0.00 87 1018.9
20260902123537 75 0.0 0.0 0.00 0.00 0.00 87 1019.1
20260902122517 75 0.0 1.0 0.00 0.00 0.00 87 1019.1
20260902121517 75 0.0 0.0 0.00 0.00 0.00 87 1019.0
20260902120517 75 0.0 1.0 0.00 0.00 0.00 88 1019.2
20260902115517 75 0.0 0.0 0.00 0.00 0.00 87 1019.1
20260902114537 75 0.0 2.0 0.00 0.00 0.00 87 1019.1
20260902113517 75 0.0 0.0 0.00 0.00 0.00 87 1018.9
20260902112517 75 0.0 0.0 0.00 0.00 0.00 87 1018.8
20260902111517 75 0.0 0.0 0.00 0.00 0.00 86 1018.8
20260902110517 75 0.0 0.0 0.00 0.00 0.00 86 1018.7
20260902105517 75 0.0 2.0 0.00 0.00 0.00 86 1018.7
20260902104517 75 0.0 0.0 0.00 0.00 0.00 86 1018.6
20260902103517 75 0.0 0.0 0.00 0.00 0.00 86 1018.5
20260902102517 76 0.0 0.0 0.00 0.00 0.00 85 1018.4
20260902101517 76 0.0 0.0 0.00 0.00 0.00 85 1018.4
20260902100537 76 0.0 2.0 0.00 0.00 0.00 85 1018.4
20260902095517 76 0.0 1.0 0.00 0.00 0.00 85 1018.3
20260902094517 76 0.0 2.0 0.00 0.00 0.00 84 1018.3
20260902093516 76 0.0 2.0 0.00 0.00 0.00 84 1018.2
20260902092517 77 0.0 2.0 0.00 0.00 0.00 83 1018.3
20260902091516 77 0.0 0.0 0.00 0.00 0.00 83 1018.2
20260902090517 77 0.0 0.0 0.00 0.00 0.00 82 1018.1
20260902085517 77 0.0 2.0 0.00 0.00 0.00 82 1018.1
20260902084517 77 248 1.0 7.0 0.00 0.00 0.00 82 1018.1
20260902083517 77 0.0 0.0 0.00 0.00 0.00 82 1018.0
20260902082517 77 0.0 0.0 0.00 0.00 0.00 82 1018.0
20260902081517 77 0.0 3.0 0.00 0.00 0.00 82 1018.0
20260902080537 77 0.0 2.0 0.00 0.00 0.00 82 1017.9
20260902075517 77 0.0 4.0 0.00 0.00 0.00 82 1017.8
20260902074517 78 0.0 0.0 0.00 0.00 0.00 82 1017.8
20260902073517 78 0.0 3.0 0.00 0.00 0.00 82 1017.9
20260902072517 78 0.0 1.0 0.00 0.00 0.00 82 1017.9
20260902071516 78 0.0 1.0 0.00 0.00 0.00 82 1017.9
20260902070517 78 0.0 1.0 0.00 0.00 0.00 82 1017.8
20260902065516 78 0.0 0.0 0.00 0.00 0.00 82 1017.9
20260902064537 78 0.0 0.0 0.00 0.00 0.00 82 1017.9
20260902063537 78 0.0 0.0 0.00 0.00 0.00 81 1017.9
20260902062517 78 0.0 0.0 0.00 0.00 0.00 81 1017.9
20260902061517 78 0.0 0.0 0.00 0.00 0.00 81 1017.9
20260902060537 78 0.0 0.0 0.00 0.00 0.00 81 1017.9
20260902055517 79 0.0 2.0 0.00 0.00 0.00 81 1017.9
20260902054516 79 0.0 0.0 0.00 0.00 0.00 82 1018.0
20260902053517 79 0.0 0.0 0.00 0.00 0.00 82 1017.9
20260902052516 79 0.0 1.0 0.00 0.00 0.00 82 1017.7
20260902051517 79 0.0 0.0 0.00 0.00 0.00 82 1017.7
20260902050517 79 0.0 1.0 0.00 0.00 0.00 82 1017.7
20260902045516 79 0.0 2.0 0.00 0.00 0.00 82 1017.7
20260902044517 79 0.0 3.0 0.00 0.00 0.00 81 1017.6
20260902043517 80 0.0 0.0 0.00 0.00 0.00 81 1017.7
20260902042517 80 0.0 2.0 0.00 0.00 0.00 81 1017.8
20260902041516 80 0.0 4.0 0.00 0.00 0.00 81 1017.8
20260902040517 80 225 1.0 3.0 0.00 0.00 0.00 81 1017.9
20260902035517 80 0.0 0.0 0.00 0.00 0.00 81 1017.9
20260902034517 80 0.0 0.0 0.00 0.00 0.00 80 1017.9
20260902033516 81 0.0 1.0 0.00 0.00 0.00 80 1017.9
20260902032517 81 0.0 0.0 0.00 0.00 0.00 79 1017.9
20260902031517 81 0.0 0.0 0.00 0.00 0.00 79 1017.8
20260902030517 81 0.0 0.0 0.00 0.00 0.00 79 1017.8
20260902025517 81 0.0 0.0 0.00 0.00 0.00 79 1017.7
20260902024537 81 0.0 0.0 0.00 0.00 0.00 79 1017.7
20260902023537 82 0.0 1.0 0.00 0.00 0.00 79 1017.8
20260902022517 82 0.0 1.0 0.00 0.00 0.00 79 1017.7
20260902021517 82 0.0 0.0 0.00 0.00 0.00 79 1017.6
20260902020517 82 0.0 1.0 0.00 0.00 0.00 80 1017.6
20260902015517 82 0.0 0.0 0.00 0.00 0.00 80 1017.4
20260902014517 82 0.0 0.0 0.00 0.00 0.00 80 1017.3
20260902013517 82 0.0 0.0 0.00 0.00 0.00 80 1017.3
20260902012557 82 0.0 0.0 0.00 0.00 0.00 80 1017.2
20260902011517 82 0.0 3.0 0.00 0.00 0.00 80 1017.1
20260902010517 82 0.0 0.0 0.00 0.00 0.00 80 1017.0
20260902005517 82 0.0 0.0 0.00 0.00 0.00 79 1016.8
20260902004516 83 0.0 0.0 0.00 0.00 0.00 79 1016.8
20260902003517 83 0.0 0.0 0.00 0.00 0.00 78 1016.8
20260902002517 84 0.0 0.0 0.00 0.00 0.00 76 1016.7
20260902001517 85 0.0 0.0 0.00 0.00 0.00 75 1016.8
20260902000516 86 0.0 0.0 0.00 0.00 0.00 74 1016.9
20260901235517 87 0.0 0.0 0.00 0.00 0.00 74 1017.0
20260901234517 88 0.0 0.0 0.00 0.00 0.00 72 1017.1
20260901233516 89 0.0 0.0 0.00 0.00 0.00 71 1017.2
20260901232516 90 0.0 0.0 0.00 0.00 0.00 69 1017.2
20260901231517 91 0.0 0.0 0.00 0.00 0.00 66 1017.2
20260901230517 93 0.0 0.0 0.00 0.00 0.00 63 1017.2
20260901225517 94 0.0 0.0 0.00 0.00 0.00 61 1017.2
20260901224537 94 0.0 0.0 0.00 0.00 0.00 59 1017.2
20260901223517 94 0.0 0.0 0.00 0.00 0.00 58 1017.2
20260901222537 94 0.0 1.0 0.00 0.00 0.00 59 1017.2
20260901221537 95 0.0 0.0 0.00 0.00 0.00 58 1017.2
20260901220517 95 0.0 2.0 0.00 0.00 0.00 56 1017.1
20260901215557 95 0.0 2.0 0.00 0.00 0.00 57 1017.1
20260901214517 95 0.0 2.0 0.00 0.00 0.00 56 1017.1
20260901213517 95 0.0 1.0 0.00 0.00 0.00 58 1017.1
20260901212537 94 0.0 1.0 0.00 0.00 0.00 57 1017.2
20260901211517 94 0.0 2.0 0.00 0.00 0.00 57 1017.2
20260901210517 94 0.0 3.0 0.00 0.00 0.00 57 1017.2
20260901205517 94 248 1.0 5.0 0.00 0.00 0.00 57 1017.2
20260901204537 94 0.0 3.0 0.00 0.00 0.00 57 1017.3
20260901203517 94 225 1.0 4.0 0.00 0.00 0.00 57 1017.3
20260901202517 94 0.0 3.0 0.00 0.00 0.00 57 1017.2
20260901201517 94 203 1.0 5.0 0.00 0.00 0.00 55 1017.2
20260901200517 95 0.0 4.0 0.00 0.00 0.00 56 1017.3
20260901195537 95 0.0 2.0 0.00 0.00 0.00 56 1017.5
20260901194517 94 225 1.0 8.0 0.00 0.00 0.00 57 1017.6
20260901193517 94 0 1.0 4.0 0.00 0.00 0.00 57 1017.7
20260901192517 94 0.0 5.0 0.00 0.00 0.00 57 1017.8
20260901191517 94 225 1.0 6.0 0.00 0.00 0.00 56 1017.9
20260901190517 93 203 1.0 9.0 0.00 0.00 0.00 57 1018.0
20260901185517 94 270 1.0 5.0 0.00 0.00 0.00 56 1018.1
20260901184537 93 293 1.0 7.0 0.00 0.00 0.00 58 1018.2
20260901183517 93 293 1.0 5.0 0.00 0.00 0.00 59 1018.2
20260901182517 93 225 1.0 4.0 0.00 0.00 0.00 60 1018.4
20260901181517 93 225 1.0 6.0 0.00 0.00 0.00 60 1018.4
20260901180517 92 270 1.0 7.0 0.00 0.00 0.00 59 1018.4
20260901175517 92 0.0 1.0 0.00 0.00 0.00 63 1018.5
20260901174517 92 293 1.0 6.0 0.00 0.00 0.00 62 1018.5
20260901173517 92 0 1.0 10.0 0.00 0.00 0.00 61 1018.6
20260901172517 92 0.0 7.0 0.00 0.00 0.00 62 1018.6
20260901171537 90 0.0 3.0 0.00 0.00 0.00 65 1018.7
20260901170537 90 225 1.0 7.0 0.00 0.00 0.00 63 1018.7
20260901165517 90 270 1.0 7.0 0.00 0.00 0.00 64 1018.7
20260901164517 89 293 2.0 7.0 0.00 0.00 0.00 63 1018.8
20260901163517 89 315 1.0 6.0 0.00 0.00 0.00 64 1018.8
20260901162517 88 0.0 5.0 0.00 0.00 0.00 66 1018.9
20260901161537 88 203 1.0 6.0 0.00 0.00 0.00 66 1018.9
20260901160517 88 225 1.0 9.0 0.00 0.00 0.00 69 1019.1
20260901155537 87 203 1.0 8.0 0.00 0.00 0.00 70 1019.0
20260901154537 87 293 1.0 5.0 0.00 0.00 0.00 71 1019.0
20260901153517 86 293 1.0 7.0 0.00 0.00 0.00 72 1019.0
20260901152517 85 203 2.0 8.0 0.00 0.00 0.00 71 1019.0
20260901151517 85 225 1.0 5.0 0.00 0.00 0.00 74 1019.0
20260901150517 84 0.0 3.0 0.00 0.00 0.00 75 1019.0
20260901145517 83 225 1.0 4.0 0.00 0.00 0.00 76 1019.1
20260901144517 83 270 1.0 6.0 0.00 0.00 0.00 77 1019.0
20260901143517 81 203 1.0 5.0 0.00 0.00 0.00 78 1019.0
20260901142517 81 248 1.0 4.0 0.00 0.00 0.00 78 1019.0
20260901141537 81 315 1.0 10.0 0.00 0.00 0.00 79 1018.9
20260901140517 80 270 1.0 5.0 0.00 0.00 0.00 80 1019.0
20260901135517 80 0.0 4.0 0.00 0.00 0.00 81 1019.0
20260901134517 79 293 1.0 5.0 0.00 0.00 0.00 82 1018.9
20260901133517 78 270 1.0 5.0 0.00 0.00 0.00 83 1018.9
20260901132517 77 203 1.0 5.0 0.00 0.00 0.00 85 1019.1
20260901131517 77 0.0 4.0 0.00 0.00 0.00 86 1019.1
20260901130517 76 225 1.0 5.0 0.00 0.00 0.00 87 1019.3